Weather reports worldwide

Advertisment
Capri, Italy (16294): temperature & dewpoint: 15.01.2018 04:00:00 - 21.01.2018 04:00:00 (CET)Capri, Italy (16294): wind speed: 15.01.2018 04:00:00 - 21.01.2018 04:00:00 (CET)Capri, Italy (16294): wind direction: 15.01.2018 04:00:00 - 21.01.2018 04:00:00 (CET)Capri, Italy (16294): reduced air pressure: 15.01.2018 04:00:00 - 21.01.2018 04:00:00 (CET)Capri, Italy (16294): visibility: 15.01.2018 04:00:00 - 21.01.2018 04:00:00 (CET)
Date & Time tt [°C] td [°C] ff [km/h] ff [kn] dd ppp [hPa] vv [km]
21.01.2018 04:00:00 - - - - - - -
21.01.2018 03:00:00 - - - - - - -
21.01.2018 02:00:00 - - - - - - -
21.01.2018 01:00:00 10,8 7,1 16 9 W 1011,0 10
21.01.2018 00:00:00 11,0 8,0 16 9 W - 10
20.01.2018 23:00:00 11,0 8,0 24 13 W - 10
20.01.2018 22:00:00 11,2 7,9 16 9 WSW 1012,3 10
20.01.2018 21:00:00 10,0 6,0 21 11 WSW - 10
20.01.2018 20:00:00 11,0 8,0 16 9 W - 10
20.01.2018 19:00:00 11,2 7,9 18 10 WSW 1012,3 10
20.01.2018 18:00:00 12,0 8,0 16 9 WSW - 10
20.01.2018 17:00:00 13,0 8,0 16 9 WSW - 10
20.01.2018 16:00:00 13,0 7,9 18 10 W 1011,7 10
20.01.2018 15:00:00 13,0 10,0 15 8 W - 10
20.01.2018 14:00:00 13,0 9,0 15 8 W - 10
20.01.2018 13:00:00 12,4 8,5 15 8 W 1011,5 20
20.01.2018 12:00:00 13,0 8,0 11 6 WSW - 10
20.01.2018 11:00:00 12,0 10,0 15 8 SW - 10
20.01.2018 10:00:00 12,0 10,1 9 5 W 1011,3 10
20.01.2018 09:00:00 - - 11 6 W - 10
20.01.2018 08:00:00 12,0 11,0 15 8 W - 10
20.01.2018 07:00:00 12,0 9,6 11 6 W 1011,9 10
20.01.2018 06:00:00 - - - - - - -
20.01.2018 05:00:00 - - - - - - -
20.01.2018 04:00:00 12,0 9,2 18 10 W 1012,3 10
20.01.2018 03:00:00 - - - - - - -
20.01.2018 02:00:00 12,0 11,0 18 10 W - 10
20.01.2018 01:00:00 12,2 11,3 16 9 W 1013,4 10
20.01.2018 00:00:00 12,0 11,0 16 9 W - 10
19.01.2018 23:00:00 12,0 11,0 15 8 W - 10
19.01.2018 22:00:00 12,2 10,9 18 10 W 1014,2 10
19.01.2018 21:00:00 12,0 10,0 13 7 W - 10
19.01.2018 20:00:00 - - - - - - -
19.01.2018 19:00:00 12,2 10,4 13 7 W 1014,1 10
19.01.2018 18:00:00 - - - - - - -
19.01.2018 17:00:00 12,0 10,0 13 7 W - 10
19.01.2018 16:00:00 12,4 10,0 13 7 W 1014,5 20
19.01.2018 15:00:00 13,0 11,0 15 8 W - 10
19.01.2018 14:00:00 13,0 11,0 18 10 W - 10
19.01.2018 13:00:00 13,4 10,6 18 10 W 1015,8 20
19.01.2018 12:00:00 13,0 10,0 16 9 W - 10
19.01.2018 11:00:00 13,0 11,0 13 7 W - 10
19.01.2018 10:00:00 12,6 10,5 11 6 WSW 1016,9 20
19.01.2018 09:00:00 11,0 10,0 9 5 ENE - 10
19.01.2018 08:00:00 11,0 8,0 8 4 ENE - 10
19.01.2018 07:00:00 11,0 9,1 8 4 ENE 1017,5 20
19.01.2018 06:00:00 11,0 9,0 15 8 ENE - 10
19.01.2018 05:00:00 - - - - - - -
19.01.2018 04:00:00 11,2 9,3 11 6 NE 1018,4 20
19.01.2018 03:00:00 - - - - - - -
19.01.2018 02:00:00 - - - - - - -
19.01.2018 01:00:00 11,0 6,2 9 5 NE 1018,5 20
19.01.2018 00:00:00 11,0 6,0 9 5 NE - 10
18.01.2018 23:00:00 11,0 7,0 9 5 NE - 10
18.01.2018 22:00:00 10,8 6,4 5 3 ENE 1019,9 20
18.01.2018 21:00:00 11,0 6,0 8 4 ENE - 10
18.01.2018 20:00:00 11,0 7,0 8 4 ENE - 10
18.01.2018 19:00:00 10,8 6,2 5 3 ENE 1021,1 20
18.01.2018 18:00:00 11,0 6,0 5 3 ENE - 10
18.01.2018 17:00:00 11,0 6,0 8 4 ENE - 10
18.01.2018 16:00:00 11,8 5,4 5 3 ENE 1021,0 20
18.01.2018 15:00:00 10,0 -1,0 5 3 ENE - 10
18.01.2018 14:00:00 10,0 -2,0 4 2 E - 10
18.01.2018 13:00:00 11,2 -1,2 4 2 ENE 1021,8 20
18.01.2018 12:00:00 10,0 -3,0 5 3 ENE - 10
18.01.2018 11:00:00 10,0 -2,0 5 3 ENE - 10
18.01.2018 10:00:00 9,6 1,5 4 2 ENE 1021,0 20
18.01.2018 09:00:00 8,0 0,0 4 2 ENE - 10
18.01.2018 08:00:00 8,0 0,0 5 3 ENE - 10
18.01.2018 07:00:00 7,8 -0,4 0 0 N 1018,6 20
18.01.2018 06:00:00 10,0 2,0 2 1 WNW - 10
18.01.2018 05:00:00 - - - - - - -
18.01.2018 04:00:00 9,8 1,9 4 2 SSW 1016,5 20
18.01.2018 03:00:00 - - - - - - -
18.01.2018 02:00:00 - - - - - - -
18.01.2018 01:00:00 10,0 2,8 8 4 NNW 1014,1 20
18.01.2018 00:00:00 10,0 3,0 4 2 SSW - 10
17.01.2018 23:00:00 10,0 5,0 13 7 W - 10
17.01.2018 22:00:00 10,0 5,0 11 6 WNW 1010,8 20
17.01.2018 21:00:00 10,0 5,0 15 8 W - 10
17.01.2018 20:00:00 13,0 7,0 39 21 W - 10
17.01.2018 19:00:00 12,8 6,4 28 15 W 1006,1 10
17.01.2018 18:00:00 13,0 6,0 18 10 W - 10
17.01.2018 17:00:00 - - - - - - -
17.01.2018 16:00:00 - - - - - - -
17.01.2018 15:00:00 15,0 10,0 41 22 W - 5
17.01.2018 14:00:00 15,0 8,0 46 25 W - 10
17.01.2018 13:00:00 15,0 9,8 46 25 W 1003,2 10
17.01.2018 12:00:00 14,0 11,0 46 25 WSW - 10
17.01.2018 11:00:00 14,0 13,0 48 26 WSW - 10
17.01.2018 10:00:00 14,0 10,8 74 40 N 1005,7 2,4
17.01.2018 09:00:00 13,0 11,0 28 15 WSW - 10
17.01.2018 08:00:00 13,0 10,0 29 16 WSW - 10
17.01.2018 07:00:00 12,8 10,2 24 13 W 1008,2 10
17.01.2018 06:00:00 13,0 10,0 28 15 W - 10
17.01.2018 05:00:00 13,0 10,0 24 13 W - 10
17.01.2018 04:00:00 12,6 9,8 28 15 W 1009,9 10
17.01.2018 03:00:00 13,0 10,0 22 12 W - 10
17.01.2018 02:00:00 13,0 10,0 24 13 W - 10
17.01.2018 01:00:00 12,8 10,4 28 15 W 1012,4 10
17.01.2018 00:00:00 13,0 10,0 28 15 W - 10
16.01.2018 23:00:00 13,0 11,0 29 16 W - 10
16.01.2018 22:00:00 13,0 10,0 28 15 W - 10
16.01.2018 21:00:00 13,0 11,0 29 16 W - 10
16.01.2018 20:00:00 13,0 10,0 28 15 W - 10
16.01.2018 19:00:00 13,0 10,5 28 15 W 1014,9 10
16.01.2018 18:00:00 13,0 10,0 28 15 W - 10
16.01.2018 17:00:00 13,0 10,0 28 15 W - 10
16.01.2018 16:00:00 12,6 8,7 31 17 W 1016,4 10
16.01.2018 15:00:00 13,0 9,0 29 16 W - 10
16.01.2018 14:00:00 12,0 8,0 29 16 W - 10
16.01.2018 13:00:00 12,4 8,7 28 15 W 1018,0 20
16.01.2018 12:00:00 12,0 9,0 - - - - 2,7
16.01.2018 11:00:00 13,0 7,0 26 14 WSW - 10
16.01.2018 10:00:00 12,0 8,1 22 12 WSW 1019,7 20
16.01.2018 09:00:00 12,0 8,0 26 14 W - 10
16.01.2018 08:00:00 10,0 8,0 24 13 W - 10
16.01.2018 07:00:00 10,2 8,6 18 10 WSW 1020,1 10
16.01.2018 06:00:00 11,0 9,0 24 13 W - 10
16.01.2018 05:00:00 - - - - - - -
16.01.2018 04:00:00 11,8 7,5 18 10 W 1021,3 10
16.01.2018 03:00:00 - - - - - - -
16.01.2018 02:00:00 - - - - - - -
16.01.2018 01:00:00 11,2 8,8 16 9 W 1022,6 10
16.01.2018 00:00:00 11,0 8,0 15 8 W - 10
15.01.2018 23:00:00 11,0 9,0 9 5 WSW - 10
15.01.2018 22:00:00 11,4 8,3 9 5 S 1022,7 10
15.01.2018 21:00:00 11,0 8,0 5 3 SSW - 10
15.01.2018 20:00:00 11,0 8,0 5 3 SE - 10
15.01.2018 19:00:00 10,8 8,6 5 3 ESE 1022,6 10
15.01.2018 18:00:00 11,0 8,0 8 4 SSE - 10
15.01.2018 17:00:00 11,0 8,0 5 3 WSW - 10
15.01.2018 16:00:00 13,4 9,3 8 4 SW 1022,3 20
15.01.2018 15:00:00 13,0 8,0 8 4 WSW - 10
15.01.2018 14:00:00 12,0 8,0 9 5 S - 10
15.01.2018 13:00:00 12,0 8,8 11 6 ESE 1023,5 20
15.01.2018 12:00:00 10,0 8,0 15 8 SE - 10
15.01.2018 11:00:00 10,0 8,0 9 5 ESE - 10
15.01.2018 10:00:00 10,4 8,3 5 3 ESE 1023,6 10
15.01.2018 09:00:00 10,0 8,0 0 0 N - 10
15.01.2018 08:00:00 10,0 9,0 5 3 NE - 10
15.01.2018 07:00:00 10,4 9,0 0 0 N 1022,3 20
15.01.2018 06:00:00 - - - - - - -
15.01.2018 05:00:00 11,0 8,0 4 2 SSW - 10
15.01.2018 04:00:00 - - - - - - -

tt = temperature
td = dewpoint
ff = wind speed
dd = wind direction
ppp = reduced air pressure
vv = visibility

Next stations